Weather History for Fort Smith, AR

Change the Weather History Date:

Thursday, April 11, 2013

  Actual Average Record
Temperature  
Mean Temperature 47 °F 60 °F  
Max Temperature 55 °F 73 °F 89 °F (1948)
Min Temperature 38 °F 48 °F 25 °F (1989)
Degree Days  
Heating Degree Days 18 6  
Month to date heating degree days 86 79  
Since 1 July heating degree days 2878 3138  
Cooling Degree Days 0 2  
Month to date cooling degree days 18 12  
Year to date cooling degree days 21 24  
Moisture  
Dew Point 34 °F    
Average Humidity 66    
Maximum Humidity 85    
Minimum Humidity 47    
Precipitation  
Precipitation T in 0.14 in 2.57 in (1943)
Month to date precipitation 1.88 1.45  
Year to date precipitation 13.73 10.87  
Sea Level Pressure  
Sea Level Pressure 29.87 in    
Wind  
Wind Speed 10 mph (WNW)    
Max Wind Speed 20 mph    
Max Gust Speed 25 mph    
Visibility 10 miles    
Events Rain    
T = Trace of Precipitation, MM = Missing Value Source: NWS Daily Summary

Daily Weather History Graph

Daily Weather History Graph

Search for Another Location

Airport:

Trip Planner

Search our weather history database for the weather conditions in past years. The results will help you decide how hot, cold, wet, or windy it might be!

Date:

Astronomy

Apr. 11, 2013 Rise Set
Actual Time 6:50 AM CDT 7:47 PM CDT
Civil Twilight 6:24 AM CDT 8:13 PM CDT
Nautical Twilight 5:53 AM CDT 8:44 PM CDT
Astronomical Twilight 5:21 AM CDT 9:16 PM CDT
Moon 7:25 AM CDT (4/11) 9:18 PM CDT (4/11)
Length of Visible Light 13h 49m
Length of Day
12h 57m
New Moon, 2% of the Moon is Illuminated
Apr 11
New Moon
Apr 18
First Quarter
Apr 25
Full
May 2
Last Quarter
May 9
New

Hourly Weather History & Observations

Time (CDT) Temp. Windchill Dew Point Humidity Pressure Visibility Wind Dir Wind Speed Gust Speed Precip Events Conditions
12:53 AM 41.0 °F 33.9 °F 36.0 °F 82% 29.92 in 10.0 mi WNW 12.7 mph - N/A   Overcast
1:53 AM 39.9 °F 32.5 °F 36.0 °F 86% 29.92 in 8.0 mi West 12.7 mph - N/A   Overcast
2:53 AM 39.9 °F 33.9 °F 35.1 °F 83% 29.92 in 10.0 mi WNW 9.2 mph - N/A   Overcast
3:53 AM 39.9 °F 32.9 °F 34.0 °F 79% 29.92 in 10.0 mi West 11.5 mph - N/A   Overcast
4:23 AM 39.2 °F 32.0 °F 33.8 °F 81% 29.90 in 10.0 mi WNW 11.5 mph - N/A   Overcast
4:53 AM 39.0 °F 32.3 °F 34.0 °F 82% 29.88 in 10.0 mi WNW 10.4 mph - 0.00 in Rain Light Rain
5:25 AM 39.2 °F 35.9 °F 33.8 °F 81% 29.91 in 10.0 mi WNW 4.6 mph - 0.00 in   Overcast
5:53 AM 39.0 °F 34.0 °F 32.0 °F 76% 29.92 in 10.0 mi WNW 6.9 mph - 0.00 in   Overcast
6:53 AM 39.0 °F 32.3 °F 30.0 °F 70% 29.86 in 10.0 mi NW 10.4 mph 23.0 mph N/A   Overcast
7:53 AM 39.0 °F 33.4 °F 30.9 °F 73% 29.89 in 10.0 mi WNW 8.1 mph - N/A   Overcast
8:53 AM 39.9 °F 32.1 °F 30.9 °F 70% 29.90 in 10.0 mi WNW 13.8 mph - N/A   Overcast
9:53 AM 41.0 °F 33.9 °F 32.0 °F 70% 29.89 in 10.0 mi WNW 12.7 mph - N/A   Overcast
10:46 AM 42.8 °F 38.6 °F 32.0 °F 66% 29.89 in 10.0 mi West 6.9 mph - N/A   Scattered Clouds
10:53 AM 44.1 °F 37.7 °F 32.0 °F 63% 29.90 in 10.0 mi WNW 12.7 mph 17.3 mph N/A   Scattered Clouds
11:21 AM 46.4 °F 39.8 °F 33.8 °F 62% 29.90 in 10.0 mi West 16.1 mph 21.9 mph N/A   Mostly Cloudy
11:37 AM 46.4 °F 41.9 °F 33.8 °F 62% 29.90 in 10.0 mi WNW 9.2 mph - N/A   Scattered Clouds
11:53 AM 46.4 °F 40.7 °F 32.0 °F 57% 29.90 in 10.0 mi West 12.7 mph 20.7 mph N/A   Mostly Cloudy
12:03 PM 46.4 °F 40.4 °F 32.0 °F 57% 29.89 in 10.0 mi West 13.8 mph - N/A   Scattered Clouds
12:53 PM 48.9 °F - 35.1 °F 59% 29.87 in 10.0 mi WNW 12.7 mph 18.4 mph N/A   Clear
1:53 PM 50.0 °F - 34.0 °F 54% 29.85 in 10.0 mi West 18.4 mph - N/A   Clear
2:53 PM 52.0 °F - 36.0 °F 54% 29.84 in 10.0 mi WSW 15.0 mph - N/A   Clear
3:53 PM 55.0 °F - 36.0 °F 49% 29.80 in 9.0 mi West 13.8 mph 19.6 mph N/A   Clear
4:53 PM 55.0 °F - 36.0 °F 49% 29.78 in 10.0 mi WSW 13.8 mph - N/A   Clear
5:53 PM 55.0 °F - 36.0 °F 49% 29.78 in 9.0 mi WSW 13.8 mph - N/A   Clear
6:53 PM 54.0 °F - 35.1 °F 49% 29.79 in 8.0 mi West 17.3 mph - N/A   Clear
7:53 PM 51.1 °F - 35.1 °F 54% 29.81 in 8.0 mi WSW 6.9 mph - N/A   Clear
8:53 PM 48.9 °F - 36.0 °F 61% 29.83 in 10.0 mi Calm Calm - N/A   Clear
9:53 PM 48.0 °F - 36.0 °F 63% 29.84 in 10.0 mi Calm Calm - N/A   Clear
10:53 PM 46.9 °F - 37.9 °F 71% 29.85 in 10.0 mi Calm Calm - N/A   Clear
11:53 PM 45.0 °F - 37.9 °F 76% 29.85 in 10.0 mi Calm Calm - N/A   Clear